Burlington, IA

8:16 PM CST on February 27, 2017 (GMT -0600)
Burlington Regional

Weather History for KBRL - October, 2012

Change the Weather History Date:

Wednesday, October 17, 2012

  Actual Average Record
Temperature  
Mean Temperature 57 °F 55 °F  
Max Temperature 67 °F 66 °F 89 °F (2016)
Min Temperature 46 °F 44 °F 25 °F (1943)
Degree Days  
Heating Degree Days 8 11  
Month to date heating degree days 205 140  
Since 1 July heating degree days 331 211  
Cooling Degree Days 0 0  
Month to date cooling degree days 0 19  
Year to date cooling degree days 1272 1201  
Growing Degree Days 7 (Base 50)    
Moisture  
Dew Point 51 °F    
Average Humidity 75    
Maximum Humidity 93    
Minimum Humidity 56    
Precipitation  
Precipitation 0.51 in 0.10 in 3.31 in (1998)
Month to date precipitation 2.58 1.78  
Year to date precipitation 20.32 32.55  
Sea Level Pressure  
Sea Level Pressure 29.43 in    
Wind  
Wind Speed 11 mph (SW)    
Max Wind Speed 23 mph    
Max Gust Speed 31 mph    
Visibility 8 miles    
Events Rain    
T = Trace of Precipitation, MM = Missing Value Source: NWS Daily Summary

Daily Weather History Graph

Daily Weather History Graph

Search for Another Location

Airport or City:

Trip Planner

Search our weather history database for the weather conditions in past years. The results will help you decide how hot, cold, wet, or windy it might be!

Date:

Astronomy

Oct. 17, 2012 Rise Set
Actual Time 7:18 AM CDT 6:20 PM CDT
Civil Twilight 6:50 AM CDT 6:48 PM CDT
Nautical Twilight 6:18 AM CDT 7:19 PM CDT
Astronomical Twilight 5:47 AM CDT 7:51 PM CDT
Moon 9:54 AM CDT (10/17) 7:55 PM CDT (10/17)
Length of Visible Light 11h 57m
Length of Day
11h 01m
Waxing Crescent, 7% of the Moon is Illuminated
Oct 17
Waxing Crescent
Oct 21
First Quarter
Oct 29
Full
Nov 6
Last Quarter
Nov 13
New

Hourly Weather History & Observations

Time (CDT) Temp. Dew Point Humidity Pressure Visibility Wind Dir Wind Speed Gust Speed Precip Events Conditions
12:53 AM 62.1 °F 46.9 °F 58% 29.51 in 10.0 mi SSW 10.4 mph - N/A   Mostly Cloudy
1:53 AM 62.1 °F 46.0 °F 56% 29.50 in 10.0 mi South 11.5 mph - N/A   Clear
2:53 AM 63.0 °F 46.0 °F 54% 29.50 in 10.0 mi SSW 13.8 mph 21.9 mph N/A   Mostly Cloudy
3:53 AM 61.0 °F 46.0 °F 58% 29.48 in 10.0 mi SSW 12.7 mph - N/A   Clear
4:53 AM 60.1 °F 46.9 °F 62% 29.47 in 10.0 mi SSW 12.7 mph - N/A   Partly Cloudy
5:53 AM 59.0 °F 46.0 °F 62% 29.47 in 10.0 mi SSW 13.8 mph - N/A   Clear
6:53 AM 59.0 °F 46.9 °F 64% 29.46 in 10.0 mi SSW 10.4 mph - N/A   Clear
7:53 AM 59.0 °F 48.0 °F 67% 29.46 in 10.0 mi South 13.8 mph - N/A   Partly Cloudy
8:53 AM 60.1 °F 48.9 °F 67% 29.45 in 10.0 mi South 12.7 mph - N/A   Clear
9:53 AM 62.1 °F 51.1 °F 67% 29.45 in 10.0 mi South 15.0 mph 21.9 mph N/A   Clear
10:53 AM 63.0 °F 52.0 °F 67% 29.43 in 10.0 mi SSW 17.3 mph 25.3 mph N/A   Mostly Cloudy
11:53 AM 64.0 °F 53.1 °F 67% 29.45 in 10.0 mi SSW 18.4 mph 27.6 mph N/A   Scattered Clouds
12:53 PM 66.0 °F 54.0 °F 65% 29.43 in 9.0 mi SW 10.4 mph 19.6 mph N/A   Mostly Cloudy
1:53 PM 64.9 °F 54.0 °F 68% 29.39 in 10.0 mi SSW 6.9 mph - N/A   Overcast
2:53 PM 61.0 °F 57.0 °F 87% 29.38 in 9.0 mi South 6.9 mph - 0.02 in Rain Light Rain
3:17 PM 60.8 °F 59.0 °F 94% 29.38 in 8.0 mi South 11.5 mph - 0.00 in   Overcast
3:31 PM 60.8 °F 57.2 °F 88% 29.37 in 7.0 mi SSW 8.1 mph - 0.00 in   Overcast
3:53 PM 60.1 °F 57.9 °F 93% 29.37 in 7.0 mi SSW 9.2 mph - 0.00 in   Overcast
4:46 PM 59.0 °F 59.0 °F 100% 29.38 in 1.8 mi SSW 12.7 mph - 0.07 in Rain Heavy Rain
4:53 PM 59.0 °F 59.0 °F 100% 29.38 in 1.0 mi SSW 10.4 mph - 0.16 in Rain Heavy Rain
5:16 PM 55.4 °F 55.4 °F 100% 29.39 in 3.0 mi WNW 16.1 mph 25.3 mph 0.15 in Rain Rain
5:21 PM 55.4 °F 53.6 °F 94% 29.39 in 3.0 mi WNW 15.0 mph 25.3 mph 0.16 in Rain Rain
5:44 PM 53.6 °F 51.8 °F 94% 29.41 in 7.0 mi WNW 16.1 mph 28.8 mph 0.22 in Rain Light Rain
5:53 PM 54.0 °F 51.1 °F 90% 29.42 in 4.0 mi NW 15.0 mph 27.6 mph 0.25 in Rain Heavy Rain
6:02 PM 53.6 °F 51.8 °F 94% 29.42 in 6.0 mi NW 10.4 mph - 0.02 in Rain Light Rain
6:53 PM 53.1 °F 52.0 °F 96% 29.43 in 10.0 mi West 8.1 mph - 0.08 in Rain Light Rain
7:53 PM 53.1 °F 51.1 °F 93% 29.44 in 10.0 mi West 5.8 mph - 0.00 in   Overcast
8:53 PM 53.1 °F 50.0 °F 89% 29.44 in 10.0 mi West 11.5 mph - N/A   Scattered Clouds
9:53 PM 51.1 °F 43.0 °F 74% 29.45 in 10.0 mi WNW 6.9 mph 17.3 mph N/A   Clear
10:53 PM 48.9 °F 42.1 °F 77% 29.47 in 10.0 mi West 8.1 mph - N/A   Clear
11:53 PM 48.9 °F 39.0 °F 69% 29.46 in 10.0 mi WNW 6.9 mph - N/A   Clear